#timestamp,LO_Frequency,Hit,StdDev 
1605920415.8,286046996.5,N
1605920435.7,286046999.4,N
1605920455.5,286046998.9,N
1605920475.3,286046996.6,N
1605920495.2,286047000.8,N
1605920515.0,286046999.9,N
1605920515.9,286046999.9,N
1605920535.8,286046998.3,N
1605920555.6,286047000.7,N
1605920575.4,286047000.6,N
1605920595.3,286046999.3,N
1605920615.1,286046998.6,N
1605920635.8,286047001.2,N
1605920655.7,286047004.2,N
1605920675.5,286047009.1,Y
1605920695.4,286047010.7,P
1605920715.2,286047007.3,N
1605920735.0,286047005.4,N
1605920735.9,286047005.4,N
1605920755.8,286047003.7,N
1605920775.6,286047007.4,N
1605920795.4,286047006.1,N
1605920815.3,286047006.8,N
1605920835.1,286047007.1,N
1605920855.9,286047006.1,N
1605920875.7,286047007.3,N
1605920895.5,286047006.8,N
1605920915.4,286047007.3,N
1605920935.2,286047007.0,N
1605920955.0,286047007.4,Y
1605920956.0,286047007.4,P
1605920975.8,286046999.9,N
1605920995.6,286046998.9,N
1605921015.5,286047002.4,N
1605921035.3,286046999.7,N
1605921055.1,286047000.3,N
1605921075.9,286047001.6,N
1605921095.7,286047000.0,N
1605921115.6,286047001.7,N
1605921135.4,286047001.2,N
1605921155.2,286046997.2,N
1605921175.1,286046998.1,N
1605921176.0,286046998.1,N
1605921195.8,286047000.2,N
1605921215.6,286046999.8,N
1605921235.5,286046998.5,N
1605921255.3,286046999.8,N
1605921275.2,286047000.7,N
1605921295.9,286047002.2,N
1605921315.7,286047005.7,N
1605921335.6,286047007.0,N
1605921355.4,286047005.9,N
1605921375.2,286046999.8,N
1605921395.1,286047001.5,N
1605921396.0,286047001.5,N
1605921415.8,286047000.2,N
1605921435.7,286047000.6,N
1605921455.5,286047000.6,N
1605921475.3,286047003.9,N
1605921495.2,286047006.1,N
1605921515.9,286047005.9,N
1605921535.7,286047002.9,N
1605921555.6,286047004.3,N
1605921575.4,286047001.7,N
1605921595.3,286047000.8,N
1605921615.1,286047000.3,N
1605921616.0,286047000.3,N
1605921635.8,286046998.1,N
1605921655.7,286047002.4,N
1605921675.5,286047002.4,N
1605921695.3,286047000.7,N
1605921715.2,286046998.7,N
1605921735.0,286046997.2,N
1605921735.9,286046997.2,N
1605921755.8,286046995.4,N
1605921775.6,286046995.1,N
1605921795.4,286046995.1,N
1605921815.3,286046999.7,N
1605921835.1,286046998.8,N
1605921855.9,286046997.1,N
1605921875.7,286047002.0,N
1605921895.5,286047001.4,N
1605921915.4,286047003.2,N
1605921935.2,286047002.3,N
1605921955.1,286047000.6,N
1605921956.0,286047000.6,N
1605921975.8,286047000.8,N
1605921995.6,286047004.7,N
1605922015.5,286047007.2,N
1605922035.3,286047007.6,N
1605922055.1,286047004.9,N
1605922075.9,286047004.9,N
1605922095.7,286047004.5,N
1605922115.6,286047007.1,N
1605922135.4,286047005.6,N
1605922155.2,286047006.2,N
1605922175.1,286047003.7,N
1605922176.0,286047003.7,N
1605922195.8,286047001.4,N
1605922215.6,286047006.5,N
1605922235.5,286047006.1,N
1605922255.3,286047005.1,N
1605922275.2,286047002.3,N
1605922295.9,286047000.6,N
1605922315.7,286046999.8,N
1605922335.6,286046999.8,N
1605922355.4,286046999.9,N
1605922375.2,286047005.4,N
1605922395.1,286047004.8,N
1605922396.0,286047004.8,N
1605922415.8,286047006.0,N
1605922435.7,286047003.4,N
1605922455.5,286047004.2,N
1605922475.3,286047001.5,N
1605922495.2,286047002.6,N
1605922515.0,286047001.9,N
1605922515.9,286047001.9,N
1605922535.8,286047002.7,N
1605922555.6,286047000.2,N
1605922575.4,286047005.2,N
1605922595.3,286047005.8,N
1605922615.1,286047008.9,Y
1605922635.8,286047006.1,P
1605922655.7,286047003.2,N
1605922675.5,286047003.7,N
1605922695.4,286047002.6,N
1605922715.2,286047004.2,Y
1605922735.0,286046999.4,P
1605922735.9,286046999.4,N
1605922755.8,286046997.6,N
1605922775.6,286046994.2,N
1605922795.4,286046997.6,N
1605922815.3,286046997.7,N
1605922835.1,286046995.5,N
1605922855.9,286046994.7,N
1605922875.7,286046990.2,Y
1605922895.5,286046996.4,P
1605922915.4,286046996.4,P
1605922935.2,286046994.6,P
1605922955.1,286046993.3,Y
1605922956.0,286046993.3,P
1605922975.8,286047001.2,N
1605922995.6,286047003.1,N
1605923015.5,286047005.9,N
1605923035.3,286047003.0,N
1605923055.1,286047004.8,N
1605923075.9,286047004.9,N
1605923095.7,286047002.5,N
1605923115.6,286046998.5,N
1605923135.4,286046998.5,N
1605923155.2,286047005.5,N
1605923175.1,286047005.9,N
1605923176.0,286047005.9,N
1605923195.8,286047004.9,N
1605923215.6,286047004.1,N
1605923235.5,286047002.4,N
1605923255.3,286047001.0,N
1605923275.2,286047001.1,N
1605923295.9,286047000.9,N
1605923315.7,286047000.1,N
1605923335.6,286047003.8,N
1605923355.4,286047004.5,N
1605923375.2,286047005.5,N
1605923395.1,286047004.3,N
1605923396.0,286047004.3,N
1605923415.8,286047001.7,N
1605923435.7,286047003.9,N
1605923455.5,286047002.6,N
1605923475.3,286047002.5,N
1605923495.2,286047005.5,N
1605923515.0,286047007.3,N
1605923515.9,286047007.3,Y
1605923535.7,286047000.9,P
1605923555.6,286046998.8,N
1605923575.4,286047005.4,N
1605923595.3,286047002.9,N
1605923615.1,286047008.2,Y
1605923635.8,286047008.1,P
1605923655.7,286047008.6,N
1605923675.5,286047005.3,N
1605923695.4,286047002.2,N
1605923715.2,286047003.3,N
1605923735.0,286047003.8,N
1605923735.9,286047003.8,N
1605923755.8,286047002.1,N
1605923775.6,286047007.5,Y
1605923795.4,286046998.6,P
1605923815.3,286046998.0,N
1605923835.1,286046993.8,N
1605923855.9,286046994.8,N
1605923875.7,286046990.2,N
1605923895.5,286046991.2,N
1605923915.4,286046991.3,N
1605923935.2,286046989.3,N
1605923955.1,286046994.5,N
1605923956.0,286046994.5,N
1605923975.8,286046994.7,N
1605923995.6,286046995.2,N
